This demonstration page uses our WeatherBlox Daily Observations layout. Learn more.

Left ArrowRight Arrow

44.31136, -96.79839

Hourly Observations for August 25, 2018

Temp ( °F °C ) Dew Point ( °F °C ) Humidity (%) Winds ( mph kmh ) Pressure ( in mb ) Visibility ( mi km ) Precip ( " mm )
12:17 am 00:17 Mostly Clear with Mist and Fog 57 14 57 14 100 100 Calm 29.80 1009 2 3 0.00 0.00
12:19 am 00:19 Mostly Cloudy with Mist and Fog 57 14 57 14 100 100 Calm 29.80 1009 1 1 0.00 0.00
12:35 am 00:35 Mostly Cloudy with Fog 57 14 57 14 100 100 NW 3 6 29.80 1009 0 0 0.00 0.00
12:52 am 00:52 Mostly Cloudy with Mist and Fog 58 14.4 57 13.9 97 97 Calm 29.85 1011 1 1 0.00 0.00
12:54 am 00:54 Mostly Cloudy with Mist and Fog 57 14 57 14 100 100 Calm 29.80 1009 1 2 0.00 0.00
12:57 am 00:57 Partly Cloudy with Mist and Fog 57 14 57 14 100 100 Calm 29.80 1009 2 3 0.00 0.00
1:04 am 01:04 Mostly Clear 57 14 57 14 100 100 Calm 29.80 1009 9 14 0.00 0.00
1:45 am 01:45 Clear with Mist and Fog 57 14 57 14 100 100 Calm 29.80 1009 2 2 0.00 0.00
1:48 am 01:48 Clear with Mist and Fog 57 14 57 14 100 100 Calm 29.80 1009 1 1 0.00 0.00
1:56 am 01:56 Clear with Mist and Fog 59 15 58 14.4 96 96 Calm 29.85 1011 1 2 0.00 0.00
2:14 am 02:14 Clear with Mist and Fog 59 15 59 15 100 100 Calm 29.80 1009 3 5 0.00 0.00
2:43 am 02:43 Clear with Mist and Fog 59 15 59 15 100 100 NE 3 6 29.80 1009 2 3 0.00 0.00
2:53 am 02:53 Clear with Mist and Fog 59 15 57 14 94 94 Calm 29.80 1009 5 8 0.00 0.00
2:56 am 02:56 Clear with Mist and Fog 58 14.4 58 14.4 100 100 Calm 29.85 1011 3 4 0.00 0.00
2:59 am 02:59 Mostly Clear with Mist and Fog 57 14 57 14 100 100 Calm 29.80 1009 1 2 0.00 0.00
3:09 am 03:09 Mostly Cloudy with Mist and Fog 55 13 55 13 100 100 Calm 29.80 1009 3 4 0.00 0.00
3:20 am 03:20 Mostly Cloudy with Mist and Fog 55 13 55 13 100 100 W 7 11 29.80 1009 1 2 0.00 0.00
3:23 am 03:23 Mostly Cloudy with Fog 55 13 55 13 100 100 W 7 11 29.80 1009 1 1 0.00 0.00
3:48 am 03:48 Cloudy with Mist and Fog 57 14 57 14 100 100 E 3 6 29.80 1009 1 2 0.00 0.00
3:54 am 03:54 Mostly Cloudy with Mist and Fog 57 14 55 13 94 94 ESE 3 6 29.80 1009 2 3 0.00 0.00
3:56 am 03:56 Mostly Cloudy with Mist and Fog 57 13.9 56 13.3 96 96 E 3 6 29.85 1011 5 8 0.00 0.00
4:07 am 04:07 Partly Cloudy 57 14 57 14 100 100 Calm 29.80 1009 8 13 0.00 0.00
4:21 am 04:21 Partly Cloudy with Mist and Fog 54 12 54 12 100 100 W 5 7 29.85 1011 2 2 0.00 0.00
4:23 am 04:23 Mostly Cloudy with Mist and Fog 54 12 54 12 100 100 W 5 7 29.85 1011 1 1 0.00 0.00
4:31 am 04:31 Mostly Cloudy with Fog 54 12 52 11 94 94 W 3 6 29.85 1011 1 1 0.00 0.00
4:56 am 04:56 Cloudy with Fog 54 12.2 53 11.7 97 97 Calm 29.88 1012 1 1 0.00 0.00
5:06 am 05:06 Cloudy with Mist and Fog 54 12 54 12 100 100 Calm 29.85 1011 1 2 0.00 0.00
5:17 am 05:17 Cloudy with Mist and Fog 54 12 54 12 100 100 NW 3 6 29.88 1012 1 1 0.00 0.00
5:31 am 05:31 Cloudy with Fog 54 12 54 12 100 100 Calm 29.88 1012 0 0 0.00 0.00
5:49 am 05:49 Cloudy with Fog 54 12 54 12 100 100 Calm 29.88 1012 1 1 0.00 0.00
5:56 am 05:56 Cloudy with Fog 53 11.7 53 11.7 100 100 Calm 29.90 1013 0 0 0.00 0.00
6:12 am 06:12 Cloudy with Fog 54 12 54 12 100 100 Calm 29.88 1012 1 1 0.00 0.00
6:18 am 06:18 Cloudy with Mist and Fog 54 12 54 12 100 100 Calm 29.88 1012 1 2 0.00 0.00
6:31 am 06:31 Cloudy with Fog 54 12 54 12 100 100 WNW 3 6 29.88 1012 1 1 0.00 0.00
6:38 am 06:38 Cloudy with Fog 54 12 52 11 94 94 Calm 29.88 1012 0 0 0.00 0.00
6:56 am 06:56 Cloudy with Fog 53 11.7 53 11.7 100 100 ESE 3 6 29.92 1013 1 1 0.00 0.00
7:18 am 07:18 Cloudy with Mist and Fog 54 12 54 12 100 100 Calm 29.91 1013 1 2 0.00 0.00
7:20 am 07:20 Cloudy with Mist and Fog 54 12 54 12 100 100 Calm 29.91 1013 2 3 0.00 0.00
7:23 am 07:23 Cloudy with Mist and Fog 54 12 54 12 100 100 SW 3 6 29.91 1013 1 2 0.00 0.00
7:26 am 07:26 Cloudy with Fog 54 12 54 12 100 100 WSW 3 6 29.91 1013 1 1 0.00 0.00
7:35 am 07:35 Cloudy with Fog 54 12 54 12 100 100 SW 3 6 29.91 1013 0 0 0.00 0.00
7:56 am 07:56 Cloudy with Fog 55 12.8 55 12.8 100 100 Calm 29.94 1014 0 0 0.00 0.00
8:32 am 08:32 Cloudy with Fog 59 15 57 14 94 94 Calm 29.88 1012 1 1 0.00 0.00
8:39 am 08:39 Cloudy with Fog 61 16 59 15 94 94 Calm 29.88 1012 0 0 0.00 0.00
8:49 am 08:49 Cloudy with Fog 61 16 61 16 100 100 Calm 29.88 1012 1 1 0.00 0.00
8:53 am 08:53 Cloudy with Mist and Fog 61 16 61 16 100 100 Calm 29.88 1012 1 2 0.00 0.00
8:56 am 08:56 Cloudy with Mist and Fog 61 16.1 61 16.1 100 100 Calm 29.94 1014 2 2 0.00 0.00
9:02 am 09:02 Cloudy with Mist and Fog 63 17 63 17 100 100 Calm 29.88 1012 3 5 0.00 0.00
9:25 am 09:25 Partly Cloudy 63 17 63 17 100 100 Calm 29.88 1012 10 16 0.00 0.00
9:56 am 09:56 Sunny 66 18.9 64 17.8 93 93 Calm 29.95 1014 10 16 0.00 0.00
10:56 am 10:56 Sunny 72 22.2 63 17.2 73 73 Calm 29.93 1014 10 16 0.00 0.00
11:56 am 11:56 Sunny 75 23.9 65 18.3 71 71 SE 7 11 29.93 1014 10 16 0.00 0.00
12:56 pm 12:56 Sunny 77 25 64 17.8 64 64 SE 9 15 29.91 1013 10 16 0.00 0.00
1:56 pm 13:56 Sunny 78 25.6 64 17.8 62 62 SE 12 19 29.91 1013 10 16 0.00 0.00
2:56 pm 14:56 Sunny 80 26.7 65 18.3 60 60 SSE 9 15 29.92 1013 10 16 0.00 0.00
3:56 pm 15:56 Sunny 81 27.2 65 18.3 58 58 SSE 13 20 29.91 1013 10 16 0.00 0.00
4:56 pm 16:56 Sunny 81 27.2 66 18.9 61 61 SSE 12 19 29.91 1013 10 16 0.00 0.00
5:56 pm 17:56 Sunny 80 26.7 66 18.9 62 62 SSE 8 13 29.92 1013 10 16 0.00 0.00
6:56 pm 18:56 Sunny 79 26.1 67 19.4 67 67 SE 10 17 29.90 1013 10 16 0.00 0.00
7:56 pm 19:56 Sunny 75 23.9 68 20 79 79 SE 10 17 29.89 1012 10 16 0.00 0.00
8:56 pm 20:56 Clear 72 22.2 67 19.4 84 84 SE 12 19 29.88 1012 10 16 0.00 0.00
9:56 pm 21:56 Clear 72 22.2 67 19.4 84 84 ESE 8 13 29.90 1013 10 16 0.00 0.00
10:56 pm 22:56 Clear 70 21.1 67 19.4 90 90 SE 10 17 29.90 1013 10 16 0.00 0.00
11:56 pm 23:56 Clear 70 21.1 67 19.4 90 90 SSE 10 17 29.89 1012 10 16 0.00 0.00

Powered by AerisWeather